www.pogodaiklimat.ru

Погода и климат >> Архив погоды >> Корея >> Чонып


ПОГОДА в Чоныпе

  • Прогноз погоды в Чоныпе
  • Монитор погоды в Чоныпе

АРХИВ ПОГОДЫ в Чоныпе

Время (UTC), дата Ветер
(напр.,м/с)
 
Видим.   Явления Облачность Т
(С)
Тd
(С)
f
(%)
Тe
(С)
Тes
(С)
Комфортность P
(гПа)
Po
(гПа)
Тmin
(С)
Tmax
(С)
R
(мм)
R24
(мм)
S
(см)
03 14.07 С 1 5000 м 8/8 600 м
[]
+27.2 +19.5 63 +33 +38 очень
душно
1002.8 995.0
06 14.07 СЗ 2 8000 м 4/4 600 м
[]
+28.3 +20.5 63 +35 +43 очень
душно
1001.8 994.0
09 14.07 З 2 9000 м 4/3
[]
+26.4 +20.2 69 +33 +34 очень
душно
1002.1 994.3
12 14.07 З 2 3000 м 3/0
[]
+23.1 +20.8 87 +31 +31 очень
душно
1004.7 996.8 +28.7 0.0
15 14.07 штиль 0 2600 м 3/3 300 м
[]
+21.6 +19.8 89 +27 +27 душно 1005.7 997.7
18 14.07 Ю 1 2100 м 4/0
[]
+20.1 +18.9 93 +25 +25 комфорт 1005.9 997.8
21 14.07 Ю 2 2200 м 5/0
[]
+20.0 +18.8 93 +24 +24 комфорт 1006.4 998.3
00 15.07 Ю 2 7000 м 8/0
[]
+25.5 +19.6 70 +31 +37 очень
душно
1006.7 998.8 +19.5 0.0
03 15.07 ЮЗ 3 8000 м 8/0
[]
+28.1 +19.5 60 +34 +44 очень
душно
1007.2 999.4
06 15.07 З 2 6000 м 8/0
[]
+28.3 +20.8 64 +35 +44 очень
душно
1006.5 998.7
09 15.07 С 2 5000 м 6/5 600 м
[]
+25.5 +20.0 72 +31 +32 очень
душно
1006.5 998.6
12 15.07 Ю 2 2500 м 5/5 600 м
[]
+22.1 +20.7 92 +28 +28 душно 1008.7 1000.7 +28.6 1
15 15.07 3500 м н/о +21.5 +19.6 89 +27 +27 душно 1010.3 1002.3
18 15.07 штиль 0 2200 м 8/0
[]
+20.8 +19.6 93 +25 +25 комфорт 1010.1 1002.0
21 15.07 В 2 3300 м 1/0
[]
+20.1 +19.2 95 +24 +24 комфорт 1010.5 1002.4
00 16.07 С 2 7000 м 1/0
[]
+24.5 +20.4 78 +30 +40 очень
душно
1010.8 1002.9 +20.0 0.0
03 16.07 8000 м 8/1 1000 м
[]
+28.0 +19.5 60 1010.8 1002.9
06 16.07 н/о 8/8 600 м
[]
+28.0 +22.2 71 +37 +40 очень
душно
1009.8 1001.9 0.4
09 16.07 СЗ 2 8000 м 5/0
[]
+26.7 +20.0 67 +33 +34 очень
душно
1010.0 1002.1
12 16.07 СВ 3 н/о 6/0 2000 м
[]
+22.6 +19.7 84 +29 +29 очень
душно
1011.2 1003.2 +29.2 0.4
15 16.07 В 1 3500 м 8/0
[]
+21.6 +19.8 89 +27 +27 душно 1012.0 1003.9
18 16.07 штиль 0 3700 м ?/? +21.9 +19.9 88 +28 +28 душно 1011.9 1003.9
21 16.07 2700 м н/о +21.2 +19.8 92 +26 +26 душно 1012.0 1003.9
00 17.07 В 2 н/о 6/0
[]
+25.6 +20.8 75 +32 +39 очень
душно
1011.4 1003.4 +21.1 0.0
03 17.07 12 км н/о +28.4 +20.4 62 +35 +41 очень
душно
1010.8 1003.0
06 17.07 Ю 3 19 км 8/0
[]
+29.7 +18.7 52 +35 +42 очень
душно
1009.8 1002.0
09 17.07 СЗ 1 7000 м 10/6 1000 м
[]
+27.4 +21.2 69 +35 +35 очень
душно
1009.6 1001.7
12 17.07 штиль 0 3400 м ?/? +24.8 +20.6 77 +31 +31 очень
душно
1010.5 1002.6 +31.4
15 17.07 штиль 0 1800 м ?/? +22.8 +21.4 92 +30 +30 очень
душно
1011.4 1003.4
18 17.07 штиль 0 2700 м ?/? +20.6 +18.8 89 +24 +24 комфорт 1011.1 1003.0
21 17.07 штиль 0 3800 м 10/1 2000 м
[]
+20.5 +19.6 95 +24 +24 комфорт 1010.4 1002.3
00 18.07 штиль 0 9000 м ?/? +22.9 +20.7 87 +30 +30 очень
душно
1009.0 1001.0 +20.3 20
03 18.07 ЮВ 1 20 км 10/3
[]
+25.6 +21.2 77 +32 +41 очень
душно
1008.5 1000.6
06 18.07 штиль 0 20 км ?/? +26.4 +22.2 78 +34 +35 очень
душно
1008.0 1000.1
09 18.07 Ю 1 20 км 10/1 600 м
[]
+26.1 +21.0 74 +33 +34 очень
душно
1007.4 999.5
12 18.07 Ю 1 20 км 8/8 1500 м
[]
+24.4 +20.7 80 +30 +30 очень
душно
1007.8 999.9 +27.1 0.0
15 18.07 20 км н/о +24.0 +20.5 81 +30 +30 очень
душно
1007.4 999.5
18 18.07 В 2 20 км 8/0
[]
+22.6 +20.5 88 +29 +29 очень
душно
1006.5 998.5
21 18.07 В 1 4400 м 3/0
[]
+23.6 +20.3 82 +29 +29 душно 1006.2 998.3
00 19.07 ЮВ 2 20 км ?/? +26.0 +21.4 76 +33 +33 очень
душно
1005.4 997.5 +22.3 0.0
03 19.07 ЮВ 3 7000 м 10/5 1000 м
[]
+27.1 +21.3 71 +34 +39 очень
душно
1005.1 997.3
06 19.07 ЮВ 2 16 км ?/? +27.7 +21.9 71 +36 +41 очень
душно
1004.8 997.0
09 19.07 ЮВ 1 20 км 10/3 600 м
[]
+26.6 +21.3 73 +34 +35 очень
душно
1004.8 996.9
12 19.07 Ю 5 20 км ?/? +25.3 +21.7 80 +32 +32 очень
душно
1003.7 995.8 +28.1 0.4
15 19.07 В 2 20 км 10// 600 м
[]
+25.4 +21.4 79 +32 +32 очень
душно
1002.4 994.5
18 19.07 СВ 3 19 км ?/? +23.4 +21.4 89 +32 +32 очень
душно
999.0 991.1 2
21 19.07 В 1 20 км 10/3 1000 м
[]
+23.8 +21.1 85 +30 +30 очень
душно
997.1 989.3
00 20.07 В 5 18 км ?/? +25.3 +22.3 83 +33 +33 очень
душно
996.2 988.4 +22.9 7
03 20.07 ЮВ 5 20 км 10// 600 м
[]
+26.6 +22.6 79 +35 +35 очень
душно
995.0 987.2
06 20.07 ЮВ 2 20 км ?/? +25.1 +22.1 83 +32 +40 очень
душно
994.7 986.9 2
09 20.07 В 2 6000 м 10// 600 м
[]
+23.7 +21.7 89 +30 +31 очень
душно
994.2 986.4
12 20.07 штиль 0 н/о ?/? +22.9 +21.8 94 +31 +31 очень
душно
995.8 987.9 +27.0 16
15 20.07 ЮЗ 3 6000 м 10// 200 м
[]
+21.1 +20.0 93 +26 +26 душно 997.8 989.8
18 20.07 ЮЗ 5 3800 м ?/? +23.0 +21.9 94 +31 +31 очень
душно
999.2 991.3
21 20.07 ЮЗ 4 6000 м 6/5 200 м
[]
+23.4 +22.1 92 +32 +32 очень
душно
1001.0 993.1

 

Местоположение метеостанции Чонып (Корея): широта 35.55 долгота 126.87 высота над уровнем моря 40 м.

В архиве по умолчанию представлена погода в Чоныпе за последнюю неделю. Архивные данные за месяц целиком и за предыдущие месяцы, начиная с января 2011 года, Вы можете получить, выбрав интересующий диапазон дат из раскрывающегося списка и нажав кнопку "Ввод!".


*Определитесь, кто Вы:
робот инопланетянин человек

Внимание! Время в таблицах - всемирное. Для получения местного времени необходимо прибавить поправку, которая равна 9 ч.

Смотрите также архив погоды в соседних городах и на ближайших метеорологических станциях:

Погода в Кочхане (Корея) (20 км)
Погода в Чонджу (Корея) (39 км)
Погода в Кванджу (Корея) (42 км)
Погода в Намвоне (Корея) (45 км)
Погода в Кунсане (Корея) (51 км)
Погода в Сунчхоне (Корея) (63 км)
Погода в Порёне (Корея) (91 км)
Погода в Мокпхо (Корея) (93 км)
Погода в Чинхэгу (Корея) (94 км)
Погода в Тэджоне (Корея) (101 км)

Пояснения к столбцам:

Ветер - указаны скорость ветра в м/с - средняя за 10 мин, порывы в срок и между сроками (в фигурных скобках) и направление, откуда дует ветер: С - северный, СВ - северо-восточный, В - восточный, ЮВ - юго-восточный, Ю - южный, ЮЗ - юго-западный, З - западный, СЗ - северо-западный.
Видимость - горизонтальная дальность видимости в метрах или километрах. При видимости от 1 до 10 км при отсутствии осадков обычно наблюдается дымка, при ухудшении видимости до 1 км и менее - туман. В сухую погоду видимость может ухудшаться дымом, пылью или мглою.
Явления - указаны атмосферные явления, наблюдавшиеся в срок или в последний час перед сроком; фигурными скобками обозначены явления, наблюдавшиеся между сроками (за 1-3 часа до срока); квадратными скобками обозначены град или гололедные отложения с указанием их диаметра в мм.
Облачность - указаны через наклонную черту общая и нижняя облачность в баллах и высота нижней границы облаков в метрах; квадратными скобками обозначены формы облаков: Ci - перистые, Cs - перисто-слоистые, Cc - перисто-кучевые, Ac - высококучевые, As - высокослоистые, Sc - слоисто-кучевые, Ns - слоисто-дождевые, Cu - кучевые, Cb - кучево-дождевые. Подробнее классификацию облаков см. в Атласе облаков (PDF).
T - Температура воздуха - температура, измеренная на высоте 2 м над землей.
Td - Температура точки росы - температура, при понижении до которой содержащийся в воздухе водяной пар достигнет насыщения.
f - Относительная влажность воздуха - влажноcть воздуха, измеренная на высоте 2 м над землей.
Te - Эффективная температура - температура, которую ощущает одетый по сезону человек в тени. Характеристика душности погоды. При расчете учитывается влияние влажности воздуха и скорости ветра на теплоощущения человека.
Tes - Эффективная температура на солнце - температура, которую ощущает человек, с поправкой на солнечный нагрев. Характеристика знойности погоды. Зависит от высоты солнца над горизонтом, облачности и скорости ветра. Ночью, в пасмурную погоду, а также при ветре 12 м/с и более поправка равна нулю.
P - Атмосферное давление - приведенное к уровню моря атмосферное давление.
Po - Атмосферное давление - измеренное на уровне метеостанции атмосферное давление.
Tmin - Минимальная температура - минимум температуры воздуха на высоте 2 м над землей.
Tmax - Максимальная температура - максимум температуры воздуха на высоте 2 м над землей.
R - Количество осадков - Количество выпавших осадков за период времени, мм. При наведении курсора мыши на число - период времени, за который выпало указанное количество осадков.
R24 - Количество осадков - Количество выпавших осадков за 24 часа, мм.
S - Снежный покров - Высота снежного покрова, см. При наведении курсора мыши на число - состояние снежного покрова и степень покрытия местности в баллах.